Vorticity
nan nan nan nan nan nan nan nan nan nan nan nan nan nan nan nan nan nan nan nan nan nan nan nan nan nan nan nan nan nan nan nan nan nan nan nan nan nan nan nan nan nan nan nan
nan 10 6 5 8 6 8 7 9 8 6 8 10 15 19 18 9 6 5 6 6 5 7 8 8 8 8 7 6 6 7 6 5 5 7 9 10 9 9 10 10 8 8 nan
nan 5 8 10 7 7 6 8 7 4 9 11 10 14 15 15 13 9 7 8 8 8 7 7 9 7 7 7 7 7 8 7 7 5 5 7 7 9 10 8 9 10 9 nan
nan 10 12 11 6 7 8 5 5 6 8 8 9 12 14 15 15 10 8 7 7 7 7 8 8 8 7 7 8 7 8 8 8 8 6 6 4 6 7 8 8 9 10 nan
nan 7 12 7 7 9 4 8 14 13 9 7 7 6 7 10 15 16 13 10 8 7 8 8 9 8 7 7 8 8 8 8 9 7 5 6 5 7 8 9 9 7 8 nan
nan 6 4 8 11 7 10 15 12 12 12 7 12 9 5 7 9 15 18 14 12 11 10 8 8 7 9 10 8 9 8 8 8 7 7 5 5 5 6 8 8 8 8 nan
nan 9 8 10 12 3 9 16 13 10 9 10 12 8 12 10 8 8 15 24 23 17 12 10 9 8 10 9 8 8 8 8 8 7 8 8 6 7 7 5 7 8 8 nan
nan 5 2 9 10 7 10 11 12 9 9 12 9 10 7 5 5 8 10 13 21 27 23 14 10 8 9 9 9 8 7 7 9 8 7 8 7 6 8 7 7 8 8 nan
nan 6 8 7 9 14 10 8 7 13 10 9 8 9 4 3 -0 1 7 8 9 15 25 25 16 10 9 10 10 7 6 8 9 7 7 8 9 7 7 8 7 7 8 nan
nan 7 10 9 12 6 7 14 13 10 7 11 8 10 9 0 2 2 3 6 9 12 13 25 27 14 11 10 9 9 7 8 8 7 6 9 9 8 7 8 8 7 8 nan
nan 11 7 7 6 8 13 11 9 7 11 10 10 10 2 -3 1 5 6 7 6 9 12 22 29 21 12 10 10 9 9 7 8 9 8 8 9 9 7 7 8 8 7 nan
nan 11 7 8 10 14 10 8 10 14 10 4 8 7 1 -3 2 6 6 7 9 10 10 19 29 25 15 12 11 10 9 9 9 9 9 8 7 8 7 7 8 8 8 nan
nan 7 8 9 10 10 7 3 5 8 9 6 3 -1 -7 -6 4 7 11 10 10 9 11 17 29 24 15 12 11 12 10 9 8 9 9 9 9 8 8 8 8 8 8 nan
nan 8 7 2 3 8 6 2 1 2 3 9 3 -8 -1 3 5 7 7 9 10 12 11 12 24 24 15 13 11 10 10 12 11 9 8 9 10 10 9 9 9 9 8 nan
nan 11 13 8 4 4 6 7 8 8 4 -1 2 5 6 9 11 10 9 8 8 11 12 12 14 21 20 13 11 11 10 11 11 11 11 10 10 10 10 10 10 10 9 nan
nan 13 11 13 15 12 10 10 9 8 10 8 6 8 11 14 11 9 8 9 9 10 10 10 13 19 19 15 11 10 13 11 10 11 10 10 10 12 12 10 9 9 10 nan
nan 11 8 8 12 14 25 17 7 8 10 12 8 10 13 11 8 9 6 7 9 10 11 12 12 13 16 18 16 10 10 12 11 11 10 10 12 9 11 11 10 10 9 nan
nan 9 7 8 10 5 4 15 18 15 11 13 13 14 11 10 7 10 15 10 12 11 10 11 12 12 15 14 15 16 12 10 12 10 11 10 10 10 10 11 11 10 10 nan
nan 12 7 11 5 7 13 13 14 14 8 12 11 13 18 17 12 13 13 9 9 18 17 11 7 9 13 15 14 15 14 10 11 13 13 11 11 11 10 10 12 14 13 nan
nan 8 9 9 8 9 16 16 9 10 8 -2 7 10 10 16 18 9 2 1 4 13 21 15 12 9 10 17 20 19 16 13 12 17 18 15 16 15 15 12 14 16 17 nan
nan 9 11 11 11 10 8 8 13 6 -5 0 11 7 10 12 5 3 6 10 12 1 11 22 18 13 7 13 21 21 16 12 10 13 13 16 16 18 13 14 13 12 14 nan
nan 10 12 11 9 9 8 5 0 1 5 11 9 8 9 11 8 8 11 14 13 16 14 21 15 13 15 14 12 10 9 8 8 9 11 9 7 10 10 14 12 6 6 nan
nan 9 10 11 3 5 5 7 7 7 10 9 12 12 10 10 11 12 14 15 13 17 28 24 16 6 9 14 14 12 10 10 10 11 10 5 3 5 9 12 12 10 11 nan
nan 12 7 7 3 4 8 16 17 12 10 10 11 11 11 12 20 19 13 12 12 10 17 15 17 6 9 12 14 13 17 16 11 11 7 9 14 11 6 8 11 12 13 nan
nan 12 9 6 8 15 10 6 10 10 13 13 12 21 26 24 20 15 11 11 11 5 15 19 7 11 8 12 12 11 17 16 14 15 12 11 15 12 9 11 16 15 10 nan
nan nan nan nan nan nan nan nan nan nan nan nan nan nan nan nan nan nan nan nan nan nan nan nan nan nan nan nan nan nan nan nan nan nan nan nan nan nan nan nan nan nan nan nan
CAPE
0 0 0 0 0 0 0 0 0 0 0 3 0 3 9 0 0 0 0 0 3 0 0 0 0 0 0 0 0 142 376 601 699 610 459 482 508 695 785 942 1025 1176 1245 1371
0 0 0 0 0 0 0 0 0 0 0 0 0 0 0 77 0 0 0 0 0 0 0 0 0 0 0 41 40 93 364 599 631 556 538 355 344 644 809 1008 1147 1143 1277 1385
0 0 0 0 0 0 0 0 0 0 0 0 0 17 176 122 10 1 0 0 0 0 0 0 0 0 0 12 140 153 319 504 671 631 615 820 757 936 955 1126 1166 1233 1366 1396
0 0 0 0 0 0 0 0 0 0 0 0 0 0 0 220 163 49 20 0 0 0 0 0 0 0 0 0 99 310 506 527 619 791 837 1151 868 870 814 1072 1198 1429 1528 1532
0 0 0 0 0 0 0 0 0 0 0 0 0 0 0 102 364 203 92 64 8 5 3 1 0 0 0 0 78 227 700 780 827 876 1275 1249 1326 1226 1251 1143 1452 1815 1677 1599
0 0 0 0 0 0 0 0 0 0 0 0 0 0 0 0 3 91 339 143 22 6 9 4 3 0 24 7 72 169 743 1257 917 910 1066 1584 2026 1556 1435 1516 1389 1284 1085 1171
0 0 0 0 0 0 0 0 0 0 0 0 0 0 0 0 4 41 0 28 111 56 7 6 0 0 45 71 121 179 708 900 724 811 1094 1195 1814 2063 1877 1975 1719 1871 1311 982
0 0 0 0 0 0 0 0 0 0 0 0 0 0 0 0 0 0 0 0 0 1 22 18 12 32 80 102 270 256 556 901 807 726 1313 1736 2052 1333 1526 1947 1643 1779 1557 1347
0 0 0 0 0 0 0 0 0 0 0 0 0 0 0 0 0 0 0 0 0 0 23 1 1 2 102 277 432 393 759 874 896 723 1304 1683 1772 1930 1765 2165 1995 1803 2193 1715
0 0 0 0 0 0 0 0 0 0 0 0 0 0 0 0 0 0 0 0 0 11 19 490 16 0 24 119 366 285 392 836 734 608 1017 1213 1595 1851 2096 2043 1848 1922 1987 2110
0 0 0 0 0 0 0 0 0 0 0 0 0 0 0 0 0 0 0 0 0 3 358 759 360 6 10 9 93 275 308 699 909 954 1044 1220 1091 1414 1596 1617 1865 1975 2018 2217
0 0 0 0 0 0 0 0 0 0 0 0 0 0 0 0 0 0 0 0 0 0 412 803 643 46 5 125 182 276 538 787 1018 1127 1257 1333 1211 1412 1239 1782 1660 1808 2038 2149
0 0 0 0 0 0 0 0 0 0 0 0 0 0 0 0 0 0 0 0 0 76 541 847 655 88 121 170 496 480 598 717 788 1222 999 956 1004 1104 1223 1335 1993 1996 2065 2151
0 0 0 0 0 0 0 0 0 0 0 0 0 0 0 0 0 0 0 0 0 125 567 791 896 453 314 573 810 926 657 475 879 1144 825 1167 904 1111 1144 1872 2239 2458 2463 2242
0 0 0 0 0 0 0 0 0 0 0 0 0 0 0 0 0 0 0 16 35 73 340 446 808 763 151 730 908 893 888 806 934 1255 1082 1331 1389 1413 1605 1887 2124 2277 2668 2514
0 0 0 0 0 0 0 0 0 0 0 0 0 0 0 0 0 0 0 9 46 154 172 69 155 817 616 364 777 615 887 1261 1245 1210 1068 1426 1545 1566 1807 2006 2199 2557 2607 2880
0 0 0 0 0 0 0 0 0 0 0 0 0 0 0 0 0 48 174 127 65 191 90 84 33 241 858 784 717 784 821 882 1169 1044 1224 688 1581 1348 1280 1816 1843 2434 2623 2724
0 0 0 0 0 0 0 0 0 0 0 0 0 0 0 4 34 43 173 228 191 264 130 114 186 306 350 652 915 868 997 948 942 1274 1253 1258 1246 1302 1078 1243 1804 2067 1948 2436
0 0 0 0 0 0 0 0 0 0 0 0 0 0 37 49 44 0 207 84 11 45 345 166 274 220 286 557 1079 1343 1291 1167 1298 1163 1430 1772 1996 1397 1069 1160 1356 1766 1911 1785
0 0 0 0 0 0 0 2 7 32 0 0 0 0 0 108 81 20 129 0 0 0 44 250 260 215 183 263 964 1409 1537 1280 1151 1354 1680 1602 1412 1246 1359 1288 1489 1701 1790 1547
0 0 0 0 0 0 0 0 100 0 0 0 0 0 0 18 192 52 7 0 0 0 1 60 139 153 190 200 311 485 174 39 5 31 68 116 137 274 841 481 603 286 171 215
0 0 1 0 4 0 9 4 12 14 0 0 0 0 0 2 15 140 18 5 25 0 0 10 6 2 5 204 96 0 1 2 0 29 1 4 16 43 29 109 20 106 14 5
0 0 7 15 0 14 3 22 14 15 4 4 7 5 65 127 134 266 180 15 19 3 8 14 9 0 0 0 108 26 13 0 0 1 8 0 12 21 13 44 172 133 31 7
0 0 0 3 34 26 7 0 4 5 17 89 248 294 311 290 280 305 13 40 0 0 7 11 4 2 1 0 0 0 0 91 15 15 14 113 65 0 0 16 316 212 83 117
0 2 56 106 78 17 10 41 25 30 234 374 344 273 391 507 331 118 36 20 1 1 3 13 1 4 1 4 0 0 0 0 1 38 99 34 6 20 11 4 89 147 6 17
0 230 231 131 154 22 52 59 51 17 198 92 128 241 255 120 27 3 6 7 2 3 6 5 3 0 0 0 0 0 0 0 0 1 4 3 7 10 15 8 2 2 5 1